[[{"header":{"parameterUnit":"m.s-1","parameterCategory":1,"la1":30.2991,"la2":30.254,"lo1":-89.0895,"lo2":-89.0444,"dy":0.0017,"dx":0.0017,"nx":28,"ny":28,"refTime":"2024-10-17T09:00:00:Z","depth":0,"parameterNumber":2,"parameterNumberName":"U-component_of_WINDS"},"data":[0,0,0,0,0,0,0,0,0,0,0,0,0,0,0,0,0,0,0,0,0,0,0,0,0,0,0,0,0,0,0,0,0,0,0,0,0,0,0,0,0,0,0,0,0,0,0,0,0,0,0,0,0,0,0,0,0,0,-4.5375,-4.5375,0,-4.5375,-4.5375,-4.5375,-4.5273,-4.527,-4.5267,-4.5265,-4.5267,-4.527,-4.5272,0,0,0,0,0,0,0,0,0,0,0,0,0,-4.5289,-4.5291,-4.5375,-4.5375,-4.5375,-4.5375,-4.5375,-4.5375,-4.5273,-4.527,-4.5266,-4.5263,-4.5266,-4.5269,-4.5272,0,0,0,0,0,0,0,0,0,0,0,0,0,-4.5312,-4.5292,-4.5375,-4.5324,-4.5319,-4.5375,-4.5375,-4.5375,-4.5274,-4.527,-4.5266,-4.5262,-4.5265,-4.5269,-4.5273,-4.5378,0,0,-4.5285,-4.5286,0,0,0,0,0,0,0,0,-4.531,-4.5315,-4.5331,-4.5328,-4.5323,-4.532,-4.5346,-4.5376,-4.5275,-4.5291,-4.5264,-4.526,-4.5288,-4.529,-4.5299,-4.5378,-4.5378,-4.5285,-4.5287,-4.5289,-4.529,0,0,0,0,0,0,0,-4.5309,-4.5314,-4.5375,-4.5332,-4.5326,-4.5302,-4.5301,-4.5351,-4.5312,-4.5289,-4.5282,-4.5283,-4.5285,-4.5295,-4.5298,-4.5378,-4.5285,-4.5288,-4.5291,-4.5292,-4.5546,-4.555,0,0,0,0,0,0,-4.5314,-4.5314,-4.5375,-4.5375,-4.5306,-4.5307,-4.5305,-4.5325,-4.5312,-4.5306,-4.5287,-4.5278,-4.5291,-4.5294,-4.5298,-4.5421,-4.5289,-4.5293,-4.5295,-4.5542,-4.5547,-4.5552,0,0,0,0,0,0,-4.5313,-4.5321,-4.5375,-4.5342,-4.5347,-4.5313,-4.5335,-4.5327,-4.5337,-4.5309,-4.5302,-4.5304,-4.5288,-4.5292,-4.5359,-4.542,-4.5294,-4.5298,-4.5536,-4.5543,-4.5549,-4.5668,0,0,0,0,0,0,-4.5311,-4.5321,-4.5359,-4.5344,-4.535,-4.5436,-4.5339,-4.533,-4.5344,-4.5333,-4.5324,-4.5319,-4.5285,-4.5354,-4.5363,-4.5423,-4.5301,-4.5531,-4.5539,-4.5547,-4.5659,-4.5678,-4.5695,0,0,0,0,0,-4.5308,-4.5393,-4.5362,-4.537,-4.5397,-4.5439,-4.5443,-4.5401,-4.5349,-4.5388,-4.5371,-4.5319,-4.5412,-4.5362,-4.5371,-4.5433,-4.5527,-4.5537,-4.5547,-4.5651,-4.5674,-4.5694,0,0,0,0,0,0,-4.5417,-4.539,-4.5355,-4.5438,-4.5442,-4.5422,-4.547,-4.5427,-4.5446,-4.5435,-4.5384,-4.5383,-4.5458,-4.5452,-4.5397,-4.5535,-4.546,-4.5472,-4.5536,-4.5558,-4.5576,-4.5576,-4.5304,0,0,0,0,0,-4.545,-4.5486,-4.5461,-4.5536,-4.554,-4.5505,-4.5522,-4.549,-4.5492,-4.5493,-4.548,-4.5485,-4.5515,-4.5536,-4.5563,-4.5657,-4.5655,-4.5705,-4.5723,-4.5738,-4.5749,-4.58,-4.5822,-4.5584,-4.5584,-4.5584,0,0,-4.552,-4.551,-4.5536,-4.5558,-4.5557,-4.5596,-4.5507,-4.5552,-4.5581,-4.55,-4.5562,-4.5554,-4.5556,-4.5637,-4.5673,-4.5635,-4.5814,-4.575,-4.5762,-4.5765,-4.5813,-4.5835,-4.5855,-4.5591,-4.559,-4.5589,0,0,-4.5667,-4.5663,-4.5725,-4.5727,-4.5726,-4.5703,-4.5718,-4.5706,-4.5697,-4.5758,-4.5699,-4.5733,-4.5786,-4.579,-4.58,-4.5951,-4.5904,-4.5961,-4.6055,-4.6105,-4.6124,-4.614,-4.6195,-4.6215,-4.5972,-4.5972,-4.5973,0,-4.5754,-4.581,-4.5763,-4.5812,-4.5825,-4.5753,-4.5817,-4.5821,-4.583,-4.5841,-4.5798,-4.5863,-4.586,-4.5942,-4.5979,-4.5989,-4.6006,-4.5961,-4.6125,-4.6141,-4.6155,-4.6207,-4.6228,-4.5979,-4.5978,-4.5978,-4.5977,0,-4.5917,-4.5957,-4.6008,-4.6018,-4.6036,-4.6092,-4.6056,-4.608,-4.6047,-4.6028,-4.6093,-4.6086,-4.6111,-4.6128,-4.6096,-4.6206,-4.6183,-4.6133,-4.6057,-4.6186,-4.6234,-4.6253,-4.5989,-4.5987,-4.5985,-4.5983,0,0,-4.6132,-4.6116,-4.6136,-4.614,-4.6136,-4.6166,-4.622,-4.6244,-4.6266,-4.6275,-4.632,-4.6367,-4.6321,-4.6332,-4.63,-4.6345,-4.6466,-4.629,-4.6289,-4.6323,-4.659,-4.6627,-4.6651,-4.6436,-4.6439,-4.6442,-4.659,0,-4.6275,-4.6365,-4.6326,-4.6421,-4.6458,-4.6391,-4.6439,-4.6442,-4.6427,-4.6457,-4.644,-4.6475,-4.6411,-4.6418,-4.6459,-4.6443,-4.6519,-4.6432,-4.6478,-4.648,-4.648,-4.6676,-4.6715,-4.6855,-4.6608,-4.6611,-4.6613,0,-4.6453,-4.647,-4.6569,-4.6559,-4.6573,-4.6616,-4.6635,-4.6664,-4.6667,-4.6653,-4.6666,-4.6625,-4.6678,-4.6603,-4.6677,-4.6619,-4.6636,-4.6631,-4.6636,-4.6638,-4.6555,-4.6685,-4.6898,-4.6919,-4.6642,-4.664,-4.6638,0,-4.6601,-4.6648,-4.6713,-4.6719,-4.6709,-4.6741,-4.6739,-4.6738,-4.6755,-4.6772,-4.6783,-4.6806,-4.682,-4.6839,-4.6806,-4.6754,-4.6886,-4.6807,-4.6877,-4.6878,-4.6907,-4.6906,-4.7127,-4.6918,-4.6918,-4.6917,-4.6917,0,-4.6765,-4.6828,-4.678,-4.682,-4.689,-4.6844,-4.6915,-4.6905,-4.6905,-4.6943,-4.6888,-4.6925,-4.6879,-4.6912,-4.6887,-4.6953,-4.6959,-4.695,-4.6943,-4.6956,-4.6957,-4.6966,-4.6956,-4.6923,-4.6922,-4.6921,-4.692,0,-4.6942,-4.6911,-4.6979,-4.6964,-4.6962,-4.7014,-4.7002,-4.7039,-4.7021,-4.707,-4.7079,-4.705,-4.7087,-4.7056,-4.7091,-4.7074,-4.7163,-4.7141,-4.7162,-4.7156,-4.7227,-4.7221,-4.7462,-4.7492,-4.7264,-4.7266,-4.7268,0,-4.7048,-4.7095,-4.7086,-4.7108,-4.7109,-4.7144,-4.7161,-4.7119,-4.714,-4.7148,-4.7185,-4.7217,-4.724,-4.7302,-4.7285,-4.7312,-4.7291,-4.7374,-4.7295,-4.7307,-4.7294,-4.7292,-4.7297,-4.739,-4.7393,-4.7395,-4.7397,0,-4.7241,-4.7224,-4.7251,-4.7273,-4.7296,-4.7311,-4.7322,-4.7344,-4.7301,-4.7327,-4.7364,-4.7382,-4.7418,-4.7451,-4.7473,-4.7472,-4.7429,-4.7422,-4.744,-4.7453,-4.7463,-4.746,-4.7206,-4.7417,-4.7415,-4.7413,-4.7412,-4.7411,-4.7386,-4.7426,-4.7426,-4.7458,-4.7462,-4.7474,-4.7509,-4.7495,-4.7525,-4.7551,-4.7525,-4.757,-4.7573,-4.7598,-4.7603,-4.7638,-4.7604,-4.7629,-4.7636,-4.7643,-4.7653,-4.7458,-4.7642,-4.7641,-4.7641,-4.764,-4.764,0,-4.7577,-4.7574,-4.7604,-4.7622,-4.7648,-4.7604,-4.7615,-4.7639,-4.7679,-4.7686,-4.771,-4.7753,-4.7785,-4.7772,-4.78,-4.7831,-4.7812,-4.784,-4.7838,-4.7839,-4.7682,-4.7664,-4.7856,-4.7855,-4.7855,-4.7855,-4.7855,-4.7855,-4.7679,-4.7744,-4.7728,-4.7794,-4.7791,-4.7834,-4.7844,-4.7856,-4.7861,-4.7912,-4.7938,-4.7928,-4.7928,-4.7956,-4.7984,-4.7979,-4.7993,-4.8028,-4.8017,-4.7871,-4.7849,-4.7829,-4.7812,-4.8032,-4.8032,-4.817,-4.8172,-4.8173]},{"header":{"parameterUnit":"m.s-1","parameterCategory":1,"la1":30.2991,"la2":30.254,"lo1":-89.0895,"lo2":-89.0444,"dy":0.0017,"dx":0.0017,"nx":28,"ny":28,"refTime":"2024-10-17T09:00:00:Z","depth":0,"parameterNumber":3,"parameterNumberName":"V-component_of_WINDS"},"data":[0,0,0,0,0,0,0,0,0,0,0,0,0,0,0,0,0,0,0,0,0,0,0,0,0,0,0,0,0,0,0,0,0,0,0,0,0,0,0,0,0,0,0,0,0,0,0,0,0,0,0,0,0,0,0,0,0,0,-1.0129,-1.0129,0,-1.0096,-1.0095,-1.0095,-1.0039,-1.0038,-1.0037,-1.0036,-1.0004,-1.0004,-1.0004,0,0,0,0,0,0,0,0,0,0,0,0,0,-1.0146,-1.0146,-1.0129,-1.0129,-1.0128,-1.0096,-1.0095,-1.0095,-1.0039,-1.0038,-1.0037,-1.0036,-1.0004,-1.0004,-1.0004,0,0,0,0,0,0,0,0,0,0,0,0,0,-1.0128,-1.0146,-1.0129,-1.0097,-1.0093,-1.0096,-1.0095,-1.0095,-1.004,-1.0038,-1.0037,-1.0035,-1.0004,-1.0004,-1.0004,-1.0036,0,0,-1.0005,-1.0005,0,0,0,0,0,0,0,0,-1.0129,-1.0128,-1.0102,-1.0099,-1.0095,-1.007,-1.0089,-1.0075,-1.004,-1.006,-1.0036,-1.0034,-1.0027,-1.0025,-1.0023,-1.0035,-1.0033,-1.0005,-1.0005,-1.0005,-1.0005,0,0,0,0,0,0,0,-1.0131,-1.0129,-1.0116,-1.0102,-1.0098,-1.0084,-1.008,-1.0086,-1.0053,-1.0058,-1.0054,-1.0051,-1.0025,-1.0023,-1.0021,-1.0033,-1.0005,-1.0005,-1.0005,-1.0005,-1.0069,-1.0071,0,0,0,0,0,0,-1.0136,-1.013,-1.0117,-1.0115,-1.0109,-1.0085,-1.008,-1.008,-1.0053,-1.0047,-1.0052,-1.0048,-1.0023,-1.0021,-1.002,-1.0056,-1.0005,-1.0005,-1.0005,-1.0068,-1.007,-1.0071,0,0,0,0,0,0,-1.0137,-1.0136,-1.0118,-1.0121,-1.0118,-1.0086,-1.0086,-1.008,-1.0077,-1.0048,-1.0042,-1.0056,-1.0022,-1.002,-1.0032,-1.0054,-1.0005,-1.0005,-1.0066,-1.0068,-1.0071,-1.0128,0,0,0,0,0,0,-1.0138,-1.0136,-1.0148,-1.0122,-1.0118,-1.0131,-1.0088,-1.008,-1.0077,-1.0072,-1.005,-1.0045,-1.002,-1.0033,-1.0033,-1.0054,-1.0005,-1.0064,-1.0067,-1.007,-1.0124,-1.0133,-1.0139,0,0,0,0,0,-1.0139,-1.0166,-1.0149,-1.0148,-1.0132,-1.0133,-1.013,-1.0102,-1.0079,-1.0091,-1.0072,-1.0045,-1.0051,-1.0034,-1.0034,-1.0055,-1.0062,-1.0066,-1.007,-1.0121,-1.0131,-1.0139,0,0,0,0,0,0,-1.0196,-1.0162,-1.0143,-1.0163,-1.0151,-1.0123,-1.0137,-1.0113,-1.0108,-1.0103,-1.0068,-1.0063,-1.0081,-1.0069,-1.005,-1.0085,-1.0053,-1.0056,-1.0092,-1.0101,-1.0108,-1.0111,-1.0005,0,0,0,0,0,-1.0211,-1.0214,-1.0184,-1.0204,-1.0199,-1.0169,-1.0168,-1.0147,-1.0134,-1.0129,-1.0111,-1.0099,-1.0098,-1.0099,-1.0097,-1.0122,-1.0117,-1.0136,-1.0144,-1.015,-1.0154,-1.0167,-1.0176,-1.0083,-1.0083,-1.0083,0,0,-1.0242,-1.0224,-1.0228,-1.0215,-1.0204,-1.0208,-1.0166,-1.0172,-1.0175,-1.013,-1.0141,-1.0127,-1.0112,-1.0131,-1.0139,-1.0122,-1.0178,-1.0155,-1.016,-1.0161,-1.0172,-1.018,-1.0188,-1.0086,-1.0085,-1.0085,0,0,-1.0301,-1.0287,-1.0303,-1.0292,-1.0274,-1.0254,-1.0258,-1.0234,-1.0223,-1.0233,-1.0199,-1.0202,-1.0201,-1.0192,-1.0187,-1.0242,-1.0217,-1.0242,-1.0282,-1.0294,-1.0302,-1.0308,-1.0328,-1.0336,-1.0246,-1.0246,-1.0246,0,-1.0342,-1.0347,-1.0314,-1.0322,-1.0318,-1.0276,-1.0292,-1.0283,-1.0266,-1.0265,-1.0246,-1.0244,-1.0231,-1.0247,-1.026,-1.0258,-1.0261,-1.0245,-1.0303,-1.0309,-1.0315,-1.0333,-1.0341,-1.0249,-1.0249,-1.0248,-1.0248,0,-1.0398,-1.0402,-1.0417,-1.0401,-1.0398,-1.041,-1.0379,-1.038,-1.0359,-1.0341,-1.0352,-1.0334,-1.0328,-1.033,-1.0309,-1.0343,-1.0333,-1.0309,-1.0277,-1.0327,-1.0344,-1.0351,-1.0254,-1.0253,-1.0252,-1.0251,0,0,-1.0494,-1.0459,-1.0465,-1.0457,-1.0435,-1.0437,-1.0447,-1.044,-1.0442,-1.0431,-1.0439,-1.0439,-1.0417,-1.0411,-1.0389,-1.04,-1.0445,-1.0375,-1.0374,-1.0389,-1.0482,-1.0501,-1.051,-1.0428,-1.0429,-1.043,-1.0484,0,-1.0549,-1.0564,-1.0534,-1.0557,-1.056,-1.052,-1.0529,-1.0516,-1.0499,-1.0499,-1.048,-1.0481,-1.0451,-1.0448,-1.0457,-1.0438,-1.0464,-1.0433,-1.0436,-1.0436,-1.0442,-1.0519,-1.0539,-1.0591,-1.049,-1.0491,-1.0492,0,-1.0615,-1.0608,-1.063,-1.0606,-1.0606,-1.0614,-1.0605,-1.0606,-1.0591,-1.0577,-1.0571,-1.0545,-1.0553,-1.0521,-1.0532,-1.0512,-1.0511,-1.0502,-1.0503,-1.0503,-1.0468,-1.0522,-1.0607,-1.0615,-1.0502,-1.0501,-1.0501,0,-1.0684,-1.0679,-1.0692,-1.0686,-1.0658,-1.0665,-1.0653,-1.0636,-1.0634,-1.0626,-1.0624,-1.0618,-1.0615,-1.061,-1.0583,-1.0562,-1.0598,-1.0563,-1.0588,-1.0589,-1.0598,-1.0599,-1.0685,-1.0596,-1.0596,-1.0596,-1.0596,0,-1.0749,-1.0765,-1.0722,-1.073,-1.0746,-1.0712,-1.0729,-1.0714,-1.0699,-1.0703,-1.0668,-1.0674,-1.0637,-1.0638,-1.0616,-1.0629,-1.0628,-1.0618,-1.0613,-1.0622,-1.0623,-1.0622,-1.0618,-1.0598,-1.0598,-1.0597,-1.0597,0,-1.0829,-1.0801,-1.0812,-1.0784,-1.0778,-1.0791,-1.0767,-1.0774,-1.0754,-1.076,-1.0759,-1.0729,-1.0728,-1.07,-1.0694,-1.068,-1.0702,-1.0689,-1.0707,-1.0704,-1.073,-1.0729,-1.082,-1.083,-1.0734,-1.0735,-1.0736,0,-1.0873,-1.0884,-1.0857,-1.0857,-1.0847,-1.0848,-1.0845,-1.0812,-1.081,-1.0793,-1.0802,-1.0798,-1.0794,-1.0795,-1.0773,-1.0768,-1.0755,-1.0787,-1.0754,-1.0763,-1.0757,-1.0757,-1.0758,-1.0795,-1.0796,-1.0797,-1.0798,0,-1.0955,-1.094,-1.0937,-1.0929,-1.0926,-1.0919,-1.0909,-1.0911,-1.0874,-1.0874,-1.0873,-1.087,-1.0863,-1.086,-1.0851,-1.0839,-1.0813,-1.0808,-1.0814,-1.0824,-1.0835,-1.083,-1.0727,-1.0807,-1.0806,-1.0805,-1.0805,-1.0804,-1.1018,-1.1026,-1.1008,-1.1006,-1.0995,-1.0986,-1.0991,-1.0971,-1.0969,-1.0961,-1.0941,-1.0943,-1.0927,-1.0912,-1.0903,-1.0904,-1.0888,-1.0896,-1.0898,-1.0901,-1.0907,-1.0833,-1.0902,-1.0902,-1.0902,-1.0901,-1.0901,0,-1.1098,-1.1085,-1.1083,-1.107,-1.1068,-1.1042,-1.103,-1.103,-1.1032,-1.1019,-1.1015,-1.1014,-1.1011,-1.0988,-1.0982,-1.0987,-1.0975,-1.0987,-1.0987,-1.0985,-1.0921,-1.0917,-1.0997,-1.0997,-1.0997,-1.0997,-1.0997,-1.0997,-1.114,-1.1152,-1.1135,-1.1141,-1.1127,-1.1129,-1.1124,-1.1116,-1.1105,-1.1105,-1.1102,-1.1087,-1.107,-1.1062,-1.1059,-1.1052,-1.1052,-1.1068,-1.1058,-1.0999,-1.0989,-1.0981,-1.0977,-1.1068,-1.1068,-1.1121,-1.1122,-1.1122]}]]